Temperature
10 10 10 10 9 9 9 9 9 9 9 9 9 9 8 8 8 8 8 8 8 7 7 7 7 7 6 6 6 6 6 6 5 4 4 4 3 3 3 3 3 3 2
9 9 9 8 8 8 8 8 8 8 8 8 8 8 7 7 7 7 7 7 7 7 6 6 6 6 6 6 5 5 5 5 4 4 3 3 3 2 2 2 2 2 2
8 8 8 8 7 7 7 7 7 7 7 7 7 7 7 7 6 6 6 6 6 6 6 5 5 5 5 5 5 4 4 4 4 3 3 2 2 2 2 1 1 1 1
7 7 7 7 7 6 6 6 6 6 6 6 6 6 6 6 6 5 5 5 5 5 5 4 4 4 4 4 3 3 3 3 3 2 2 2 1 1 0 0 0 -0 -0
6 6 6 6 6 5 5 5 5 5 5 5 5 5 5 5 5 5 4 4 4 4 3 3 3 3 3 2 2 2 2 2 2 1 1 1 0 -0 -0 -1 -1 -1 -1
5 5 5 5 4 4 4 4 4 4 4 4 4 4 4 4 4 3 3 3 3 3 2 2 2 2 2 1 1 1 1 1 1 0 0 -0 -1 -1 -2 -2 -2 -2 -2
5 4 4 4 3 3 3 3 3 3 3 3 3 3 3 3 3 2 2 2 2 2 2 1 1 1 1 1 0 0 0 -0 -0 -1 -1 -1 -2 -2 -3 -3 -3 -3 -3
4 3 3 3 3 3 2 2 2 2 2 2 2 2 2 2 2 2 1 1 1 1 1 1 0 0 0 -0 -0 -1 -1 -1 -1 -2 -2 -2 -3 -3 -4 -4 -4 -4 -4
3 3 2 2 2 2 2 1 1 1 1 1 1 1 1 1 1 1 1 1 0 0 0 -0 -0 -1 -1 -1 -1 -1 -2 -2 -2 -3 -3 -3 -4 -4 -4 -5 -5 -5 -5
3 2 2 2 1 1 1 1 1 1 1 0 0 0 0 0 0 0 0 0 -0 -0 -1 -1 -1 -1 -1 -2 -2 -2 -2 -3 -3 -3 -4 -4 -4 -5 -5 -5 -5 -5 -6
2 1 1 1 1 1 0 0 0 0 0 -0 -0 0 0 0 -0 -0 -0 -0 -1 -1 -1 -1 -1 -2 -2 -2 -3 -3 -3 -3 -4 -4 -4 -4 -5 -5 -5 -5 -5 -6 -6
1 1 1 0 0 0 0 -0 -0 -0 -0 -0 -0 -0 -0 -0 -0 -1 -1 -1 -1 -1 -1 -2 -2 -2 -2 -3 -3 -3 -4 -4 -4 -4 -5 -5 -5 -5 -5 -6 -6 -6 -6
1 1 0 0 0 0 -0 -0 -0 -0 -0 -0 -0 -0 -1 -1 -1 -1 -1 -1 -1 -1 -2 -2 -2 -3 -3 -3 -3 -4 -4 -4 -5 -5 -5 -5 -5 -5 -6 -6 -6 -6 -6
0 0 0 0 0 -0 -0 -0 -0 -0 -0 -0 -0 -1 -1 -1 -1 -1 -1 -1 -2 -2 -2 -2 -3 -3 -3 -3 -4 -4 -4 -5 -5 -5 -5 -5 -6 -6 -6 -6 -6 -6 -6
0 0 0 0 0 0 -0 -0 -0 -0 -1 -1 -1 -1 -1 -1 -1 -1 -1 -2 -2 -2 -2 -3 -3 -3 -3 -4 -4 -4 -5 -5 -5 -5 -6 -6 -6 -6 -6 -6 -7 -7 -7
0 0 0 0 0 -0 -0 -0 -0 -0 -1 -1 -1 -1 -1 -1 -1 -1 -2 -2 -2 -2 -3 -3 -3 -3 -4 -4 -4 -5 -5 -5 -6 -6 -6 -6 -6 -6 -6 -7 -7 -7 -7
0 0 0 0 0 -0 -0 -0 -0 -0 -1 -1 -1 -1 -1 -1 -1 -2 -2 -2 -2 -3 -3 -3 -3 -4 -4 -4 -5 -5 -5 -6 -6 -6 -6 -7 -7 -7 -7 -7 -7 -7 -7
0 0 -0 -0 -0 -0 -0 -0 -1 -1 -1 -1 -1 -1 -1 -1 -2 -2 -2 -2 -2 -3 -3 -3 -3 -4 -4 -5 -5 -5 -6 -6 -6 -6 -7 -7 -7 -7 -7 -7 -8 -8 -8
0 0 0 -0 -0 -0 -0 -1 -1 -1 -1 -1 -1 -1 -1 -1 -2 -2 -2 -2 -2 -3 -3 -3 -4 -4 -4 -5 -5 -6 -6 -6 -6 -7 -7 -7 -8 -8 -8 -8 -8 -8 -8
0 0 -0 -0 -0 -0 -1 -1 -1 -1 -1 -1 -1 -1 -1 -2 -2 -2 -2 -2 -2 -3 -3 -3 -4 -4 -5 -5 -5 -6 -6 -6 -7 -7 -7 -7 -8 -8 -8 -8 -8 -8 -9
0 -0 -0 -0 -0 -0 -1 -1 -1 -1 -1 -1 -1 -1 -1 -2 -2 -2 -2 -2 -3 -3 -3 -3 -4 -4 -5 -5 -5 -6 -6 -6 -7 -7 -7 -8 -8 -8 -8 -8 -8 -9 -9
0 -0 -0 -0 -0 -1 -1 -1 -1 -1 -1 -1 -1 -1 -2 -2 -2 -2 -2 -2 -3 -3 -3 -4 -4 -4 -5 -5 -6 -6 -6 -6 -7 -7 -7 -8 -8 -8 -8 -9 -9 -9 -9
-0 -0 -1 -1 -1 -1 -1 -1 -1 -1 -1 -1 -1 -1 -2 -2 -2 -2 -2 -2 -3 -3 -3 -4 -4 -4 -5 -5 -6 -6 -6 -6 -7 -7 -8 -8 -8 -8 -8 -9 -9 -9 -9
-1 -1 -1 -1 -1 -1 -1 -1 -1 -1 -2 -2 -2 -2 -2 -2 -2 -2 -2 -3 -3 -3 -4 -4 -4 -4 -5 -5 -6 -6 -6 -7 -7 -7 -8 -8 -8 -8 -8 -9 -9 -9 -9
-1 -1 -1 -1 -1 -1 -2 -2 -2 -2 -2 -2 -2 -2 -2 -2 -3 -3 -3 -3 -3 -4 -4 -4 -5 -5 -5 -5 -6 -6 -6 -7 -7 -8 -8 -8 -8 -8 -9 -9 -9 -9 -9
-1 -2 -2 -2 -2 -2 -2 -2 -2 -2 -2 -2 -2 -3 -3 -3 -3 -3 -4 -4 -4 -4 -4 -5 -5 -5 -5 -6 -6 -6 -6 -7 -7 -8 -8 -8 -9 -9 -9 -9 -9 -10 -10
Wind_Speed
5 5 6 5 5 5 5 4 4 4 4 5 4 5 5 5 5 5 6 5 6 6 6 6 6 5 5 4 4 3 3 1 1 2 3 3 4 4 5 6 6 6 6
5 5 5 5 5 6 5 5 5 5 5 5 5 6 6 6 6 6 7 7 7 7 7 7 7 6 7 5 5 5 4 3 2 2 2 3 3 3 3 4 5 6 6
5 6 5 5 5 5 5 5 5 6 6 6 6 6 6 7 7 7 8 8 9 8 7 8 7 7 7 6 6 5 4 4 3 3 2 2 3 3 3 3 4 4 5
6 6 5 5 5 5 5 5 5 6 6 6 7 7 7 7 7 7 8 9 9 9 8 7 7 7 6 6 5 5 5 5 5 4 3 3 3 3 3 3 3 3 3
6 6 5 5 5 5 5 5 5 6 6 6 6 6 6 6 6 7 7 8 8 9 8 7 7 8 8 6 5 4 4 4 4 4 3 3 3 3 2 2 2 3 2
6 6 5 5 5 5 5 5 6 6 6 6 6 6 6 6 10 11 9 7 7 8 7 7 7 8 9 10 10 8 6 4 3 3 2 2 1 1 1 2 2 3 3
7 6 6 6 5 5 5 6 6 6 6 6 6 6 7 8 11 12 11 8 7 6 6 5 5 5 8 6 8 10 9 9 6 4 3 1 0 1 0 1 1 1 3
7 7 6 6 6 5 5 6 6 5 5 5 6 6 6 7 11 11 12 8 7 6 5 4 4 3 3 5 5 5 5 5 5 3 2 2 2 2 3 2 2 2 4
7 7 7 7 7 7 6 6 5 5 5 4 5 5 5 5 9 10 9 5 5 5 4 3 3 2 3 5 5 4 4 4 5 5 4 3 3 2 0 1 0 1 3
8 7 7 7 7 7 7 6 4 5 5 5 5 4 4 3 5 8 8 4 4 3 2 3 3 2 3 4 4 2 1 1 2 3 4 5 5 5 5 2 2 1 1
7 7 7 7 7 7 6 5 6 5 5 5 4 3 3 2 3 5 6 3 3 2 1 1 2 3 2 2 2 2 2 1 1 1 1 2 2 2 3 3 0 3 3
8 8 7 7 7 7 7 6 6 6 6 4 3 2 1 1 1 2 4 4 4 3 1 1 2 3 2 2 1 2 2 2 2 1 1 1 2 2 2 4 4 5 7
8 8 7 7 6 7 7 7 6 5 5 4 4 3 2 1 1 1 2 2 3 3 2 2 2 2 2 2 2 2 2 2 1 0 1 2 2 2 3 4 5 6 8
9 8 8 8 7 6 6 6 6 6 5 5 5 4 3 2 2 2 1 0 1 1 1 1 2 1 1 1 1 2 1 0 1 1 2 2 2 2 2 2 3 3 4
9 8 8 7 7 6 6 5 6 6 6 7 6 5 5 5 6 8 5 3 3 3 2 1 0 0 1 1 1 1 1 1 1 1 2 3 3 3 3 3 3 3 3
9 9 7 7 6 6 5 4 7 8 10 11 10 8 6 7 7 8 8 8 7 6 3 2 2 3 3 3 3 2 2 2 2 2 3 3 4 4 4 4 4 4 6
9 9 7 7 7 7 6 6 4 5 8 10 11 11 10 9 9 9 9 8 8 7 4 3 4 4 4 4 4 3 3 3 3 3 4 4 4 5 5 5 5 5 6
9 10 9 7 7 7 7 6 6 5 4 4 7 10 11 11 10 10 9 7 5 4 4 5 5 5 5 5 5 4 4 4 4 4 5 5 5 5 5 6 6 6 7
9 8 8 7 7 7 7 6 6 6 6 4 3 5 10 10 11 11 9 5 5 5 5 5 5 5 5 5 5 5 5 5 5 5 5 5 5 5 6 6 7 11 10
9 12 10 8 7 7 7 7 7 7 7 6 7 6 4 5 5 6 6 5 6 6 6 6 6 6 6 6 5 5 5 5 6 6 6 6 6 6 7 8 8 8 8
7 9 13 9 8 8 8 8 8 8 8 8 8 8 10 7 7 7 7 7 7 8 7 7 6 6 6 6 5 6 7 6 6 6 6 6 6 6 7 8 9 9 9
7 7 8 8 8 8 8 8 8 8 9 9 7 7 13 8 7 7 8 8 8 7 6 6 6 6 6 6 6 7 7 7 7 7 7 7 7 7 8 8 9 9 9
7 7 7 7 7 10 10 8 8 8 8 8 7 7 7 8 8 8 8 8 7 6 7 7 7 6 9 11 12 9 8 8 8 7 7 7 7 8 8 9 10 11 11
6 7 8 8 8 8 8 8 8 9 9 8 8 8 8 8 8 9 8 7 7 6 8 9 9 10 11 11 13 14 15 16 14 12 11 9 9 9 9 10 11 12 12
6 6 7 7 8 8 8 8 9 9 9 9 8 8 8 8 8 8 7 7 7 7 8 9 10 11 13 15 15 15 16 17 17 15 13 10 11 11 11 12 12 13 13
5 6 6 6 7 8 8 8 8 8 8 8 8 8 8 8 8 7 7 7 7 7 7 8 11 13 14 15 17 17 17 18 18 18 16 11 11 11 12 12 14 14 14
Wind_Direction
98 93 90 80 76 78 74 63 60 56 53 56 56 58 54 49 50 67 68 66 74 67 62 70 65 59 60 47 45 48 43 54 167 84 56 29 27 27 30 40 41 38 22
111 102 96 90 84 80 74 65 67 67 60 61 63 66 63 59 59 70 75 71 75 74 69 72 66 67 64 54 55 55 49 41 94 112 63 36 35 30 33 36 34 34 23
117 111 102 93 90 86 80 73 72 74 70 67 69 71 69 68 69 73 81 80 77 76 75 77 74 78 72 63 61 58 48 48 61 101 83 45 38 30 33 29 29 20 13
124 118 112 105 102 98 89 81 77 80 80 78 77 76 75 74 75 80 85 86 83 77 72 73 74 79 84 77 67 60 62 63 64 80 78 55 41 25 38 24 12 5 357
133 127 124 116 108 101 94 90 87 86 86 85 85 84 86 84 85 89 88 90 88 81 70 64 68 82 93 90 86 77 73 70 67 69 65 50 32 28 23 5 9 343 343
143 139 133 126 118 111 107 103 97 91 87 85 81 81 82 88 98 99 98 89 88 86 78 64 61 60 69 73 76 77 81 85 85 84 74 73 32 9 6 12 9 10 337
149 146 144 140 136 131 126 115 107 100 95 88 79 78 81 91 98 100 99 93 88 84 80 73 67 65 66 61 64 59 54 62 81 122 117 125 212 238 48 354 340 278 268
157 157 156 154 148 139 133 125 115 108 102 95 85 80 82 94 102 104 103 91 86 79 78 81 80 62 88 90 79 61 46 39 59 88 138 198 228 229 203 199 227 270 277
168 169 167 164 159 154 149 138 128 120 110 99 92 87 84 92 107 111 108 96 89 77 67 71 80 48 71 89 88 71 48 17 32 51 54 42 14 355 212 128 8 346 315
179 173 168 167 165 163 155 141 129 127 121 111 99 89 88 82 113 120 119 111 106 94 67 42 35 43 50 86 116 107 62 331 359 18 26 26 26 24 32 83 166 177 266
165 161 164 166 164 158 148 140 138 132 122 116 110 92 77 75 105 127 136 135 141 134 109 30 338 358 14 38 117 174 240 205 137 63 11 2 11 18 22 21 154 179 206
157 162 165 164 162 156 150 146 144 142 139 139 136 128 75 25 55 146 151 155 152 146 164 246 282 316 342 2 19 299 347 76 97 61 0 336 331 326 321 318 302 266 244
162 167 166 164 162 160 161 159 154 157 160 167 171 183 202 219 281 212 169 164 163 162 206 256 287 317 21 15 348 3 53 76 83 346 301 287 273 275 289 302 301 294 283
170 172 171 171 169 168 170 170 170 176 180 185 192 202 209 217 227 227 227 242 204 191 220 295 327 348 47 10 8 22 37 246 220 243 275 282 289 287 286 288 291 302 302
176 178 179 180 177 177 180 185 186 195 193 193 201 198 199 219 229 216 199 205 206 215 196 170 186 268 294 292 283 278 281 307 314 278 279 290 291 291 289 286 276 281 277
183 185 185 183 181 180 180 194 219 213 222 225 217 209 217 224 229 222 223 229 235 235 208 193 223 232 241 249 259 269 263 257 257 260 268 272 277 280 283 278 271 272 278
189 187 185 185 185 184 185 190 203 221 228 229 227 224 222 224 227 226 228 234 241 241 220 214 226 233 237 239 241 239 244 247 242 250 257 260 263 270 275 278 276 277 278
191 192 190 190 189 190 194 195 194 196 207 231 233 230 227 227 229 230 232 231 237 230 212 221 229 232 232 234 235 237 243 248 245 247 251 255 256 263 269 271 271 271 279
195 195 192 189 189 191 192 194 199 203 210 215 219 235 230 230 232 233 228 213 217 226 226 228 229 229 230 231 232 233 235 240 245 246 249 250 252 256 263 265 269 277 280
201 201 192 190 190 193 195 199 204 209 214 218 223 223 205 206 218 226 220 212 220 228 228 230 231 229 228 228 229 230 234 240 243 244 246 248 247 249 258 263 266 270 271
199 202 200 197 199 199 201 205 208 211 217 223 228 222 208 206 218 221 222 223 225 229 229 229 230 229 227 225 225 228 232 240 239 240 245 246 245 251 255 259 263 266 270
197 199 200 203 203 204 208 209 210 215 220 226 230 229 227 219 218 223 226 228 226 225 222 221 226 225 221 219 220 224 232 240 241 238 242 244 244 250 255 258 261 265 267
200 201 205 209 208 213 216 214 215 218 223 225 224 221 222 222 223 226 229 228 224 223 224 223 227 231 233 231 228 222 229 238 238 233 239 246 248 251 254 258 260 264 266
207 209 211 213 213 214 216 218 218 221 224 226 225 225 224 225 226 228 228 225 223 226 227 226 230 233 236 238 239 237 238 243 245 241 238 244 250 255 256 259 261 264 266
216 217 217 217 217 219 221 223 224 224 225 225 226 227 227 226 229 230 228 222 223 227 230 231 235 239 242 242 244 246 249 252 252 247 242 241 247 250 255 259 262 266 266
229 227 226 224 222 222 223 226 228 227 228 229 228 227 227 226 228 229 227 224 226 230 234 236 237 239 245 249 252 255 258 260 261 260 257 254 254 257 258 262 264 265 268
Height
1495 1496 1497 1498 1499 1499 1500 1500 1501 1501 1501 1501 1501 1501 1501 1501 1501 1501 1501 1501 1501 1501 1501 1502 1502 1502 1502 1503 1503 1503 1503 1503 1502 1501 1501 1500 1500 1499 1499 1499 1499 1499 1499
1492 1493 1494 1495 1495 1496 1496 1497 1497 1497 1497 1497 1497 1497 1497 1497 1497 1497 1497 1498 1498 1498 1498 1499 1499 1499 1499 1499 1499 1499 1499 1499 1499 1498 1497 1497 1496 1496 1496 1496 1495 1495 1496
1490 1490 1491 1492 1492 1492 1493 1493 1494 1494 1494 1494 1494 1494 1494 1494 1494 1494 1495 1495 1495 1495 1496 1496 1496 1496 1496 1496 1496 1496 1496 1496 1495 1495 1494 1494 1494 1493 1493 1493 1492 1492 1492
1487 1488 1488 1489 1489 1489 1490 1490 1490 1491 1491 1491 1491 1491 1491 1492 1492 1492 1492 1492 1493 1493 1493 1494 1494 1494 1494 1494 1494 1494 1494 1494 1493 1493 1492 1492 1492 1491 1491 1490 1490 1490 1489
1484 1485 1485 1486 1486 1486 1487 1487 1488 1488 1488 1489 1489 1489 1489 1490 1490 1490 1490 1491 1491 1491 1491 1492 1492 1492 1492 1493 1493 1492 1492 1492 1491 1491 1490 1490 1489 1489 1489 1488 1487 1487 1486
1481 1482 1482 1483 1483 1484 1484 1485 1486 1486 1486 1487 1487 1487 1488 1488 1488 1488 1489 1490 1490 1490 1491 1491 1491 1491 1491 1491 1491 1490 1490 1490 1489 1489 1489 1488 1487 1487 1486 1486 1485 1484 1484
1479 1479 1480 1480 1481 1482 1482 1483 1484 1484 1485 1485 1486 1486 1487 1487 1487 1488 1488 1489 1489 1490 1490 1490 1490 1490 1490 1490 1489 1489 1488 1488 1488 1488 1487 1486 1486 1485 1484 1484 1483 1482 1481
1476 1476 1477 1478 1478 1479 1480 1481 1482 1483 1484 1484 1485 1485 1486 1486 1487 1488 1488 1488 1489 1489 1489 1489 1489 1489 1488 1488 1488 1487 1487 1486 1485 1485 1485 1484 1484 1483 1482 1482 1481 1480 1479
1472 1473 1474 1475 1476 1477 1478 1479 1480 1482 1482 1483 1484 1485 1485 1486 1487 1487 1487 1488 1488 1488 1488 1488 1488 1487 1487 1486 1486 1486 1485 1484 1484 1483 1483 1482 1482 1481 1480 1480 1479 1477 1476
1470 1471 1472 1473 1474 1475 1476 1478 1479 1480 1481 1482 1483 1484 1485 1486 1486 1486 1486 1487 1487 1487 1487 1486 1486 1486 1485 1485 1484 1484 1484 1483 1482 1482 1481 1481 1480 1479 1478 1477 1476 1475 1474
1467 1468 1469 1470 1472 1473 1475 1476 1478 1479 1480 1481 1482 1483 1484 1485 1485 1485 1485 1485 1485 1485 1485 1485 1485 1484 1484 1483 1483 1482 1482 1481 1480 1480 1479 1479 1478 1477 1476 1475 1474 1473 1471
1464 1465 1466 1468 1470 1471 1473 1474 1476 1478 1479 1480 1481 1482 1483 1483 1484 1484 1484 1484 1484 1484 1484 1483 1483 1482 1482 1481 1481 1480 1480 1479 1478 1478 1477 1476 1475 1474 1473 1472 1471 1469 1468
1461 1462 1464 1466 1467 1469 1471 1473 1474 1476 1477 1479 1480 1481 1481 1482 1482 1482 1482 1482 1482 1482 1482 1481 1481 1480 1480 1479 1479 1478 1477 1477 1476 1475 1474 1473 1472 1471 1470 1469 1467 1466 1464
1458 1460 1461 1463 1465 1467 1469 1471 1473 1474 1475 1477 1478 1479 1479 1480 1480 1480 1480 1480 1480 1480 1479 1479 1479 1478 1477 1477 1476 1475 1474 1474 1473 1472 1471 1470 1469 1467 1466 1464 1463 1461 1460
1455 1457 1459 1461 1463 1465 1467 1469 1471 1472 1474 1475 1476 1477 1477 1478 1478 1478 1478 1478 1478 1477 1477 1476 1476 1475 1474 1474 1473 1472 1471 1470 1469 1468 1467 1466 1465 1463 1462 1460 1459 1457 1455
1452 1454 1456 1458 1460 1462 1464 1466 1468 1470 1471 1472 1473 1474 1474 1475 1475 1475 1475 1475 1475 1474 1474 1473 1472 1472 1471 1470 1469 1468 1468 1467 1466 1464 1463 1462 1460 1459 1458 1456 1454 1452 1450
1449 1451 1453 1455 1457 1459 1461 1463 1465 1467 1468 1469 1470 1470 1471 1472 1472 1472 1472 1471 1471 1471 1470 1469 1469 1468 1467 1466 1465 1464 1463 1463 1461 1460 1459 1458 1456 1454 1453 1451 1449 1447 1445
1445 1447 1449 1451 1454 1456 1458 1460 1461 1463 1464 1465 1466 1467 1467 1468 1468 1468 1468 1468 1467 1467 1466 1465 1464 1464 1463 1462 1461 1460 1459 1458 1457 1455 1454 1453 1451 1449 1448 1446 1444 1442 1440
1441 1443 1445 1447 1450 1452 1454 1456 1457 1458 1460 1461 1462 1462 1463 1463 1463 1464 1463 1463 1462 1462 1461 1461 1460 1459 1458 1457 1456 1455 1454 1453 1452 1450 1449 1448 1446 1444 1442 1441 1439 1437 1434
1436 1438 1441 1443 1445 1447 1449 1450 1452 1453 1455 1456 1457 1458 1458 1458 1458 1458 1458 1458 1457 1457 1456 1456 1455 1454 1453 1452 1451 1449 1448 1447 1446 1445 1444 1442 1441 1439 1437 1435 1433 1431 1428
1432 1434 1436 1438 1440 1441 1443 1445 1447 1448 1449 1450 1451 1453 1453 1453 1453 1453 1453 1452 1452 1451 1451 1450 1449 1448 1447 1446 1445 1444 1442 1441 1440 1439 1438 1436 1434 1433 1431 1429 1427 1425 1422
1427 1429 1431 1432 1434 1436 1438 1439 1441 1442 1443 1444 1445 1446 1446 1446 1446 1447 1447 1447 1446 1446 1445 1444 1443 1442 1441 1440 1439 1437 1436 1435 1434 1433 1431 1430 1428 1426 1424 1422 1420 1418 1416
1423 1424 1425 1427 1428 1430 1431 1433 1434 1435 1436 1437 1438 1439 1440 1439 1440 1440 1440 1440 1440 1439 1438 1438 1437 1436 1435 1434 1432 1431 1430 1429 1428 1426 1424 1423 1421 1419 1417 1415 1413 1411 1409
1418 1419 1420 1421 1422 1424 1425 1426 1427 1428 1429 1430 1431 1431 1432 1432 1433 1433 1433 1433 1433 1432 1432 1431 1430 1429 1428 1427 1426 1424 1423 1422 1420 1419 1417 1415 1414 1412 1410 1408 1406 1404 1401
1413 1413 1414 1415 1416 1417 1418 1419 1420 1421 1422 1422 1423 1423 1424 1425 1425 1425 1426 1426 1425 1425 1424 1424 1423 1422 1421 1420 1418 1417 1416 1414 1413 1411 1410 1408 1406 1404 1402 1400 1398 1396 1393
1407 1408 1408 1409 1410 1411 1411 1412 1413 1414 1414 1415 1415 1416 1416 1416 1417 1417 1417 1417 1417 1417 1416 1416 1415 1414 1413 1412 1411 1410 1408 1407 1406 1404 1402 1400 1398 1396 1394 1392 1390 1387 1385